When you browse on this site, cookies collect data to enhance your experience and personalize the content and advertising you see.
Visit our Privacy Policy to learn more. By continuing to use the site, you agree to this use of cookies and data.

Hourly Weather Slovyansk

Today, 26 September, Saturday

Time Temperature Precipitation Wind Pressure Humidity
00:00 +17°C° 0 mm 4 mps 754 mmHg 44%
01:00 +17°C° 0 mm 4 mps 754 mmHg 46%
02:00 +15°C° 0 mm 4 mps 754 mmHg 47%
03:00 +15°C° 0 mm 4 mps 754 mmHg 49%
04:00 +15°C° 0 mm 4 mps 754 mmHg 49%
05:00 +14°C° 0 mm 4 mps 754 mmHg 49%
06:00 +14°C° 0 mm 4 mps 754 mmHg 49%
07:00 +16°C° 0 mm 5 mps 754 mmHg 45%
08:00 +19°C° 0 mm 6 mps 754 mmHg 40%
09:00 +21°C° 0 mm 6 mps 754 mmHg 35%
10:00 +23°C° 0 mm 7 mps 754 mmHg 29%
11:00 +27°C° 0 mm 8 mps 754 mmHg 23%
12:00 +29°C° 0 mm 8 mps 754 mmHg 17%
13:00 +29°C° 0 mm 8 mps 754 mmHg 16%
14:00 +31°C° 0 mm 8 mps 753 mmHg 16%
15:00 +31°C° 0 mm 8 mps 753 mmHg 16%
16:00 +29°C° 0 mm 7 mps 753 mmHg 18%
17:00 +28°C° 0 mm 6 mps 753 mmHg 21%
18:00 +26°C° 0 mm 5 mps 753 mmHg 24%
19:00 +24°C° 0 mm 6 mps 753 mmHg 26%
20:00 +23°C° 0 mm 6 mps 754 mmHg 28%
21:00 +22°C° 0 mm 6 mps 754 mmHg 31%
22:00 +21°C° 0 mm 6 mps 754 mmHg 32%
23:00 +21°C° 0 mm 7 mps 754 mmHg 34%

Tomorrow, 27 September, Sunday

Time Temperature Precipitation Wind Pressure Humidity
00:00 +20°C° 0 mm 7 mps 754 mmHg 35%
01:00 +20°C° 0 mm 7 mps 755 mmHg 37%
02:00 +18°C° 0 mm 7 mps 755 mmHg 39%
03:00 +17°C° 0 mm 7 mps 755 mmHg 41%
04:00 +16°C° 0 mm 7 mps 755 mmHg 44%
05:00 +16°C° 0 mm 7 mps 755 mmHg 46%
06:00 +15°C° 0 mm 7 mps 755 mmHg 48%
07:00 +16°C° 0 mm 8 mps 755 mmHg 47%
08:00 +17°C° 0 mm 8 mps 756 mmHg 47%
09:00 +17°C° 0 mm 8 mps 756 mmHg 46%
10:00 +19°C° 0 mm 9 mps 756 mmHg 42%
11:00 +22°C° 0 mm 9 mps 756 mmHg 38%
12:00 +24°C° 0 mm 9 mps 756 mmHg 34%
13:00 +26°C° 0 mm 9 mps 756 mmHg 33%
14:00 +27°C° 0 mm 9 mps 756 mmHg 32%
15:00 +28°C° 0 mm 9 mps 755 mmHg 31%
16:00 +27°C° 0 mm 8 mps 756 mmHg 33%
17:00 +27°C° 0 mm 6 mps 756 mmHg 35%
18:00 +26°C° 0 mm 5 mps 756 mmHg 36%
19:00 +24°C° 0.2 mm 6 mps 756 mmHg 39%
20:00 +23°C° 0.2 mm 6 mps 756 mmHg 42%
21:00 +23°C° 0.2 mm 7 mps 757 mmHg 44%
22:00 +22°C° 0.1 mm 6 mps 757 mmHg 47%
23:00 +21°C° 0.1 mm 6 mps 757 mmHg 49%

Day after tomorrow, 28 September, Monday

Time Temperature Precipitation Wind Pressure Humidity
00:00 +21°C° 0.1 mm 6 mps 757 mmHg 51%
01:00 +20°C° 0.1 mm 5 mps 757 mmHg 55%
02:00 +19°C° 0.1 mm 5 mps 758 mmHg 58%
03:00 +18°C° 0.1 mm 4 mps 758 mmHg 61%
04:00 +17°C° 0 mm 4 mps 758 mmHg 65%
05:00 +17°C° 0 mm 4 mps 759 mmHg 69%
06:00 +15°C° 0 mm 4 mps 759 mmHg 73%
07:00 +17°C° 0 mm 4 mps 759 mmHg 67%
08:00 +17°C° 0 mm 5 mps 759 mmHg 62%
09:00 +19°C° 0 mm 5 mps 760 mmHg 56%
10:00 +20°C° 0 mm 5 mps 760 mmHg 51%
11:00 +22°C° 0 mm 5 mps 760 mmHg 46%
12:00 +25°C° 0 mm 5 mps 760 mmHg 41%
13:00 +25°C° 0 mm 5 mps 760 mmHg 39%
14:00 +26°C° 0 mm 5 mps 760 mmHg 37%
15:00 +27°C° 0 mm 5 mps 759 mmHg 35%
16:00 +26°C° 0 mm 4 mps 759 mmHg 36%
17:00 +25°C° 0 mm 4 mps 759 mmHg 37%
18:00 +24°C° 0 mm 3 mps 759 mmHg 38%
19:00 +22°C° 0 mm 3 mps 759 mmHg 38%
20:00 +21°C° 0 mm 4 mps 759 mmHg 39%
21:00 +20°C° 0 mm 4 mps 760 mmHg 40%
22:00 +20°C° 0 mm 5 mps 759 mmHg 41%
23:00 +20°C° 0 mm 5 mps 759 mmHg 42%

29 September, Tuesday

Time Temperature Precipitation Wind Pressure Humidity
00:00 +19°C° 0 mm 5 mps 759 mmHg 43%
01:00 +19°C° 0 mm 5 mps 759 mmHg 45%
02:00 +17°C° 0 mm 5 mps 759 mmHg 47%
03:00 +17°C° 0 mm 6 mps 759 mmHg 49%
04:00 +16°C° 0 mm 6 mps 759 mmHg 51%
05:00 +15°C° 0 mm 6 mps 759 mmHg 53%
06:00 +15°C° 0 mm 6 mps 759 mmHg 55%
07:00 +15°C° 0 mm 6 mps 759 mmHg 55%
08:00 +16°C° 0 mm 7 mps 759 mmHg 54%
09:00 +16°C° 0 mm 7 mps 759 mmHg 54%
10:00 +17°C° 0.1 mm 7 mps 759 mmHg 52%
11:00 +18°C° 0.1 mm 7 mps 758 mmHg 49%
12:00 +20°C° 0.1 mm 7 mps 758 mmHg 47%
13:00 +21°C° 0.1 mm 8 mps 758 mmHg 43%
14:00 +21°C° 0.1 mm 8 mps 757 mmHg 39%
15:00 +22°C° 0.1 mm 8 mps 757 mmHg 34%
16:00 +22°C° 0.1 mm 8 mps 756 mmHg 34%
17:00 +21°C° 0.1 mm 8 mps 756 mmHg 34%
18:00 +21°C° 0.1 mm 7 mps 756 mmHg 34%
19:00 +21°C° 0 mm 8 mps 756 mmHg 32%
20:00 +21°C° 0 mm 8 mps 755 mmHg 31%
21:00 +21°C° 0 mm 9 mps 755 mmHg 29%
22:00 +21°C° 0.2 mm 8 mps 754 mmHg 32%
23:00 +20°C° 0.2 mm 8 mps 754 mmHg 36%

30 September, Wednesday

Time Temperature Precipitation Wind Pressure Humidity
00:00 +20°C° 0.2 mm 8 mps 754 mmHg 40%
01:00 +18°C° 0.1 mm 8 mps 754 mmHg 41%
02:00 +18°C° 0.1 mm 8 mps 753 mmHg 43%
03:00 +17°C° 0.1 mm 8 mps 753 mmHg 44%
04:00 +17°C° 0 mm 8 mps 753 mmHg 47%
05:00 +16°C° 0 mm 8 mps 753 mmHg 50%
06:00 +15°C° 0 mm 8 mps 753 mmHg 53%
07:00 +16°C° 0.1 mm 8 mps 753 mmHg 51%
08:00 +16°C° 0.1 mm 8 mps 753 mmHg 50%
09:00 +16°C° 0.1 mm 8 mps 753 mmHg 49%
10:00 +16°C° 0.1 mm 8 mps 753 mmHg 49%
11:00 +16°C° 0.1 mm 8 mps 753 mmHg 49%
12:00 +17°C° 0.1 mm 8 mps 753 mmHg 50%
13:00 +17°C° 0.2 mm 8 mps 753 mmHg 48%
14:00 +18°C° 0.2 mm 7 mps 752 mmHg 47%
15:00 +18°C° 0.2 mm 7 mps 752 mmHg 46%
16:00 +18°C° 0.1 mm 7 mps 752 mmHg 45%
17:00 +19°C° 0.1 mm 6 mps 751 mmHg 44%
18:00 +19°C° 0.1 mm 6 mps 751 mmHg 43%
19:00 +19°C° 0.3 mm 6 mps 751 mmHg 43%
20:00 +19°C° 0.3 mm 6 mps 751 mmHg 42%
21:00 +20°C° 0.3 mm 7 mps 751 mmHg 42%
22:00 +18°C° 0.1 mm 7 mps 751 mmHg 42%
23:00 +18°C° 0.1 mm 8 mps 751 mmHg 42%

1 October, Thursday

Time Temperature Precipitation Wind Pressure Humidity
00:00 +18°C° 0.1 mm 8 mps 751 mmHg 42%
01:00 +16°C° 0.8 mm 8 mps 751 mmHg 52%
02:00 +15°C° 0.8 mm 8 mps 751 mmHg 62%
03:00 +12°C° 0.8 mm 8 mps 751 mmHg 72%
04:00 +12°C° 1.6 mm 8 mps 752 mmHg 75%
05:00 +12°C° 1.6 mm 8 mps 752 mmHg 77%
06:00 +11°C° 1.6 mm 8 mps 753 mmHg 79%
07:00 +12°C° 0.8 mm 7 mps 753 mmHg 76%
08:00 +12°C° 0.8 mm 7 mps 753 mmHg 72%
09:00 +14°C° 0.8 mm 7 mps 753 mmHg 69%
10:00 +14°C° 0.1 mm 7 mps 753 mmHg 69%
11:00 +15°C° 0.1 mm 7 mps 754 mmHg 69%
12:00 +15°C° 0.1 mm 8 mps 754 mmHg 70%
13:00 +15°C° 0.6 mm 7 mps 754 mmHg 72%
14:00 +15°C° 0.6 mm 6 mps 754 mmHg 74%
15:00 +14°C° 0.6 mm 5 mps 754 mmHg 77%
16:00 +14°C° 0.4 mm 4 mps 754 mmHg 77%
17:00 +14°C° 0.4 mm 3 mps 754 mmHg 78%
18:00 +15°C° 0.4 mm 2 mps 754 mmHg 78%
19:00 +16°C° 0 mm 3 mps 755 mmHg 75%
20:00 +16°C° 0 mm 3 mps 755 mmHg 72%
21:00 +16°C° 0 mm 3 mps 755 mmHg 68%
22:00 +16°C° 0 mm 3 mps 755 mmHg 69%
23:00 +15°C° 0 mm 4 mps 755 mmHg 69%
Show more